BANGABANDHUSAT-1

Last updated on Tue Sep 22 2026 00:03:14 GMT+0000 (Coordinated Universal Time)

1 43463U 18044A 26264.58397110 -.00000366 00000+0 00000+0 0 9995 2 43463 0.0118 167.2912 0002465 21.2867 141.2251 1.00271447 30671
UTC large
Height (km)
Speed (km/s)
/
Latitude / Longitude
Inclination (degrees)
Orbital Period (minutes)
Azimuth
Elevation
Range (km)
Doppler Factor

Next 0 passes for location: London (51.5072 / 0.1276)

No passes found over London.
BANGABANDHUSAT-1